Regional Weather Roundup
Issued by NWS

Home | Current Version | Previous Version | Graphics & Text | Print | Product List | Glossary Off
Versions: 1 2 3 4 5 6 7 8 9 10 11 12 13 14 15 16 17 18 19 20 21 22 23 24 25 26 27 28 29 30 31 32 33 34 35 36 37 38 39 40 41 42 43 44 45 46 47 48 49 50

000
ASUS43 KMKX 011711
RWRWI

WISCONSIN REGIONAL WEATHER ROUNDUP
NATIONAL WEATHER SERVICE MILWAUKEE/SULLIVAN WI
1200 PM CDT WED APR 01 2015

NOTE: "FAIR" INDICATES FEW OR NO CLOUDS BELOW 12,000 FEET WITH NO
SIGNIFICANT WEATHER AND/OR OBSTRUCTIONS TO VISIBILITY.

WIZ001-002-006>008-014>016-023>028-011800-
NORTHWEST WISCONSIN

CITY           SKY/WX    TMP DP  RH WIND       PRES   REMARKS
SUPERIOR ARPT  CLOUDY    37  33  85 NE16G25   29.71F WCI  27
ASHLAND        MOSUNNY   45  35  68 N6        29.75F
HAYWARD        PTSUNNY   54  32  43 S16G24    29.74F
SIREN          PTSUNNY   61  32  33 S15G22    29.68F
CUMBERLAND     CLOUDY    55  32  41 SE16      29.72F
RICE LAKE      CLOUDY    58  32  38 SE17      29.75F
CHETEK         CLOUDY    57  35  43 SE14G23   29.76F
LADYSMITH      MOSUNNY   55  34  43 SE13G24   29.81F
EAU CLAIRE     PTSUNNY   63  33  32 S13G25    29.77F
MENOMONIE      PTSUNNY   63  33  32 SE12      29.76F
NEW RICHMOND   MOSUNNY   64  34  33 S18       29.70F
OSCEOLA        MOSUNNY   65  36  34 SE17      29.71F
$$

WIZ003>005-009-010-017-018-011800-
NORTH CENTRAL WISCONSIN

CITY           SKY/WX    TMP DP  RH WIND       PRES   REMARKS
MANITOWISH WTR CLOUDY    47  31  54 S17       29.84F
ARBOR VITAE    CLOUDY    46  32  59 SE13G21   29.86F
WOODRUFF       CLOUDY    46  32  59 SE13G21   29.86F
RHINELANDER    CLOUDY    49  31  49 SE14      29.90F
EAGLE RIVER    CLOUDY    45  30  55 SE12G18   29.89F
LAND O LAKES   CLOUDY    46  31  56 S12G17    29.89F
PHILLIPS       PTSUNNY   53  33  45 SE15G22   29.82F
TOMAHAWK       MOSUNNY   50  33  50 SE3       29.88F
MEDFORD        SUNNY     52  35  51 SE13G22   29.85F
MERRILL        MOSUNNY   51  34  51 SE15G21   29.89F
$$

WIZ029-030-035-036-043>047-011800-
CENTRAL WISCONSIN

CITY           SKY/WX    TMP DP  RH WIND       PRES   REMARKS
WAUSAU         SUNNY     52  33  48 SE14G21   29.90F
MOSINEE        SUNNY     52  34  50 SE15      29.92F
MARSHFIELD     SUNNY     59  33  37 S18G26    29.87F
STEVENS POINT  SUNNY     53  32  45 SE12G21   29.92F
WAUPACA        SUNNY     55  33  41 SE13      29.97F
WAUTOMA        SUNNY     59  33  37 SE14      29.95F
WISC RAPIDS    SUNNY     58  30  34 SE15G23   29.91F
CAMP DOUGLAS   MOSUNNY   63  34  34 S13G18    29.88F
$$

WIZ011>013-019>022-031-037>040-048>050-011800-
NORTHEAST WISCONSIN

CITY           SKY/WX    TMP DP  RH WIND       PRES   REMARKS
ANTIGO         MOSUNNY   47  34  61 SE15      29.94F
SHAWANO        PTSUNNY   49  35  60 SE7       30.00F
OCONTO         MOSUNNY   43  33  67 SE7       30.02F
STURGEON BAY   CLOUDY    41  30  65 SE9       30.06F
GREEN BAY      MOSUNNY   49  37  63 S13       30.01F
MANITOWOC      CLOUDY    43  35  73 S9        30.05F
APPLETON       MOSUNNY   50  34  53 SE14      30.00F
CLINTONVILLE   MOSUNNY   48  34  57 SE9       29.99F
OSHKOSH        SUNNY     55  34  45 SE9       29.99F
$$

WIZ032>034-041-042-053>061-011800-
SOUTHWEST WISCONSIN

CITY           SKY/WX    TMP DP  RH WIND       PRES   REMARKS
LA CROSSE      SUNNY     64  33  31 S18       29.82F
SPARTA         SUNNY     65  31  27 S10G21    29.86F
VIROQUA        SUNNY     65  34  32 S16G22    29.87F
BOSCOBEL       SUNNY     70  35  27 SW10G18   29.88F
PRAIRIE DU CHI SUNNY     69  32  25 S6        29.86F
PLATTEVILLE    SUNNY     68  37  31 S16G22    29.91F
$$

WIZ056-057-062-063-064-067-068-011800-
SOUTH CENTRAL WISCONSIN

CITY           SKY/WX    TMP DP  RH WIND       PRES   REMARKS
REEDSBURG      SUNNY     62  36  37 S12       29.91F
BARABOO/DELLS  SUNNY     63  32  31 S20       29.92F
LONE ROCK      SUNNY     67  34  29 SE10      29.90F
MINERAL POINT  SUNNY     68  34  28 S16       29.92F
MADISON        MOSUNNY   64  34  32 S17       29.95F
MIDDLETON      SUNNY     64  32  30 S16       29.94F
WATERTOWN      SUNNY     61  38  41 SE10G16   29.97F
MONROE         SUNNY     64  36  34 SE14      29.95F
JANESVILLE     SUNNY     64  36  34 SE12      29.97F
$$

WIZ051-052-058>065-066-070>072-011800-
SOUTHEAST WISCONSIN

CITY           SKY/WX    TMP DP  RH WIND       PRES   REMARKS
MILWAUKEE      MOSUNNY   50  34  54 SE12      30.03F
WAUKESHA       MOSUNNY   57  36  44 SE9       30.02F
MILWAUKEE/TIMM SUNNY     55  32  41 SE8       30.03F
RACINE         SUNNY     49  35  58 SE10      30.05F
BURLINGTON     SUNNY     61  35  37 SE7       30.00F
KENOSHA        SUNNY     55  38  52 E10       30.03F
FOND DU LAC    SUNNY     58  34  40 SE13      29.99F
SHEBOYGAN      MOSUNNY   50  35  56 MISG      30.04F
WEST BEND      SUNNY     54  32  43 E10       30.01F
JUNEAU         SUNNY     58  36  43 SE14      29.98F
$$

LSZ147-162-011800-
LAKE SUPERIOR

STATION/POSITION TIME  TEMP    WIND        PRES    WAVE
                       AIR SEA DIR/SP/G            HT/PER
                 (UTC) (F)     (DEG/KT/KT) (MB)    (FT/S)
DEVILS ISLAND    1700   33      70/ 18/ 19 1008.6F
PORT WING        1640   36      20/ 18/ 20 1007.1F
SAXON HARBOR     1620   52     170/  7/ 17 1008.5F
$$

LMZ867-665-643>646-011800-
LAKE MICHIGAN

STATION/POSITION TIME  TEMP    WIND        PRES    WAVE
                       AIR SEA DIR/SP/G            HT/PER
                 (UTC) (F)     (DEG/KT/KT) (MB)    (FT/S)
NORTHPORT PIER   1702   34     140/ 10/ 13 1017.3F
SISTER BAY       1502   42     170/ 10/ 12   N/A
KEWAUNEE LAKESHO 1600   36     160/  4/  6 1017.7R
SHEBOYGAN LAKESH 1700   36     160/  5/  5 1018.4F
PORT WASHINGTON  1640   41     120/  3/  4 1018.3F
MILWAUKEE LAKESH 1600   39      30/  4/  4   N/A
KENOSHA   LAKESH 1700   41     150/  6/  7 1017.3F
$$

TC  - TEMPERATURE IN CELSIUS
VSB - VISIBILITY IN STATUTE MILES
WCI - WIND CHILL INDEX
HX  - HEAT INDEX



USA.gov is the U.S. government's official web portal to all federal, state and local government web resources and services.